Location: Port Hueneme
(34.1478°N, 119.1951°W)
Time: 16:14:20
(UTC+00:00)

ATLAS 2AS CENTAUR R/B - Pass Details

Date: 06 August 2025
Orbit: 1052 x 1158 km, 63.7° (Epoch: 20 May)

Event Time Altitude Azimuth Distance (km) Brightness Sun altitude
Rises 04:33:21 0° 331° (NNW) 3,832 6.8 -18.9°
Reaches altitude 10° 04:36:00 10° 334° (NNW) 2,872 5.9 -19.3°
Maximum altitude 04:42:46 70° 58° (ENE) 1,114 2.7 -20.4°
Enters shadow 04:45:38 37° 132° (SE) 1,592 3.1 -20.9°
